Home > Weather > Ski > Past weeks

Flag for Norway Weather for the Past 2 Weeks in Ski, Norway

Now
48 °F

Cool.


Feels Like: 43 °F
Forecast: 34 / 50 °F
Wind: 14 mph from South

Location: Statfjord B

Current Time: Apr 30, 2016 at 3:43:01 PM

Latest Report: Apr 30, 2016 at 2:50 PM


Visibility: N/A

Pressure: 30.01 "Hg

Humidity: 66%

Dew Point: 37 °F

Location of SkiLocation

Historic Weather in Ski — Graph

°F

Ski Temperature Yesterday

Maximum temperature yesterday: 45 °F (at 4:20 AM)
Minimum temperature yesterday: 41 °F (at 12:50 PM)
Average temperature yesterday: 43 °F

High & Low Weather Summary for the Past Weeks

 TemperatureHumidityPressure
High48 °F (Apr 28, 10:50 AM)100% (Apr 20, 2:20 PM)30.33 "Hg (Apr 20, 2:20 PM)
Low30 °F (Apr 23, 6:20 AM)49% (Apr 15, 4:20 PM)29.27 "Hg (Apr 18, 10:20 AM)
Average41 °F74%29.83 "Hg
* Reported Apr 15 2:20 PM — Apr 30 2:20 PM, Ski, Weather by CustomWeather, © 2016

Note: Actual official high and low records may vary slightly from our data, if they occured in-between our weather recording intervals... More about our weather records

Advertising

Ski Weather History for the Previous 24 Hours

Scroll right to see more
 ConditionsComfort  
Time TempWeatherWind HumidityBarometerVisibility
2:20 PM
Sat, Apr 30
48 °FCool.14 mph62%29.98 "HgN/A
1:50 PM48 °FCool.14 mph66%29.98 "HgN/A
1:20 PM48 °FScattered clouds.12 mph66%29.98 "HgN/A
12:50 PM46 °FPartly sunny.16 mph66%29.98 "HgN/A
12:20 PM46 °FCool.17 mph66%29.98 "HgN/A
11:50 AM45 °FPassing clouds.18 mph71%29.98 "HgN/A
11:20 AM46 °FScattered clouds.16 mph57%29.95 "HgN/A
10:50 AM45 °FQuite cool.17 mph66%29.95 "HgN/A
10:20 AM43 °FPassing clouds.15 mph71%29.95 "HgN/A
9:50 AM41 °FPartly sunny.13 mph81%29.95 "HgN/A
8:50 AM39 °FLight rain. Overcast.6 mph87%29.92 "HgN/A
8:20 AM39 °FLight rain. Partly sunny.6 mph87%29.92 "HgN/A
7:50 AM37 °FLight rain. Overcast.8 mph93%29.92 "Hg6 mi
7:20 AM36 °FLight rain. Overcast.13 mph93%29.92 "Hg4 mi
6:50 AM36 °FRain. Fog.17 mph93%29.92 "Hg2 mi
6:20 AM36 °FLight rain. Overcast.14 mph93%29.89 "Hg6 mi
5:50 AM37 °FLight rain. Overcast.9 mph87%29.89 "HgN/A
4:50 AM39 °FSprinkles. Passing clouds.8 mph87%29.86 "Hg6 mi
4:20 AM39 °FLight rain. Fog.16 mph87%29.86 "Hg2 mi
3:50 AM43 °FPartly cloudy.18 mph76%29.83 "HgN/A
3:20 AM43 °FSprinkles. Passing clouds.20 mph76%29.83 "HgN/A
2:50 AM43 °FPartly cloudy.20 mph81%29.83 "HgN/A
2:20 AM43 °FPassing clouds.18 mph81%29.83 "HgN/A
1:50 AM43 °FPassing clouds.20 mph81%29.80 "HgN/A
1:20 AM43 °FPassing clouds.16 mph81%29.80 "HgN/A
12:50 AM41 °FQuite cool.9 mph87%29.80 "HgN/A
12:20 AM41 °FPassing clouds.5 mph87%29.80 "HgN/A
11:50 PM
Fri, Apr 29
41 °FPassing clouds.3 mph81%29.80 "HgN/A
11:20 PM41 °FQuite cool.1 mph81%29.80 "HgN/A
10:50 PM41 °FQuite cool.8 mph81%29.80 "HgN/A
10:20 PM41 °FPassing clouds.12 mph81%29.80 "HgN/A
9:50 PM41 °FPassing clouds.7 mph81%29.80 "HgN/A
9:20 PM41 °FPartly sunny.6 mph81%29.77 "HgN/A
8:50 PM41 °FLight rain. Partly sunny.16 mph81%29.77 "HgN/A
8:20 PM43 °FScattered clouds.12 mph76%29.77 "HgN/A
7:50 PM45 °FScattered clouds.10 mph66%29.74 "HgN/A
7:20 PM45 °FScattered clouds.12 mph71%29.74 "HgN/A
6:50 PM43 °FPartly sunny.17 mph76%29.74 "HgN/A
6:20 PM43 °FPartly sunny.18 mph71%29.74 "HgN/A
5:50 PM41 °FSprinkles. Partly sunny.23 mph76%29.71 "HgN/A
5:20 PM41 °FOvercast.23 mph76%29.71 "HgN/A
4:50 PM41 °FSprinkles. Partly sunny.23 mph76%29.71 "HgN/A
4:20 PM41 °FDrizzle. Overcast.24 mph81%29.71 "HgN/A
3:50 PM43 °FPartly sunny.25 mph76%29.68 "HgN/A
3:20 PM45 °FPartly sunny.21 mph71%29.68 "HgN/A
Weather by CustomWeather, © 2016

See weather overviewHow to use our weather pages